DW7584 Weather Reports


Display with metric or nautical units.
time (UTC)temp
F
wind
direction
speed
MPH
gust
MPH
rain 1hr
in
rain 24hr
in
rain mn
in
humidity
%
barometer
mb
20260508192017 63 248 13.0 18.0 0.00 0.00 0.00 32 1006.7
20260508191017 63 225 12.0 18.0 0.00 0.00 0.00 32 1006.9
20260508190017 63 248 12.0 17.0 0.00 0.00 0.00 35 1007.0
20260508185016 65 248 10.0 15.0 0.00 0.00 0.00 38 1007.2
20260508184016 63 248 11.0 16.0 0.00 0.00 0.00 35 1007.2
20260508183036 64 225 12.0 18.0 0.00 0.00 0.00 35 1007.4
20260508182016 64 225 11.0 14.0 0.00 0.00 0.00 34 1007.6
20260508181016 63 225 12.0 18.0 0.00 0.00 0.00 36 1007.8
20260508180016 63 248 13.0 18.0 0.00 0.00 0.00 35 1008.0
20260508175016 64 225 9.0 14.0 0.00 0.00 0.00 37 1008.1
20260508174016 63 225 9.0 13.0 0.00 0.00 0.00 35 1008.4
20260508173019 62 225 13.0 20.0 0.00 0.00 0.00 36 1008.5
20260508172016 62 248 11.0 17.0 0.00 0.00 0.00 36 1008.6
20260508171017 63 225 6.0 13.0 0.00 0.00 0.00 35 1008.8
20260508170016 62 225 9.0 16.0 0.00 0.00 0.00 37 1009.0
20260508165017 62 225 8.0 13.0 0.00 0.00 0.00 35 1009.1
20260508164016 61 203 6.0 13.0 0.00 0.00 0.00 37 1009.2
20260508163016 60 248 9.0 15.0 0.00 0.00 0.00 38 1009.4
20260508162016 60 225 8.0 13.0 0.00 0.00 0.00 39 1009.5
20260508161038 60 225 9.0 13.0 0.00 0.00 0.00 43 1009.6
20260508160016 59 225 11.0 15.0 0.00 0.00 0.00 39 1009.7
20260508155016 59 225 10.0 14.0 0.00 0.00 0.00 41 1009.8
20260508154016 59 248 10.0 14.0 0.00 0.00 0.00 39 1009.9
20260508153016 58 225 9.0 15.0 0.00 0.00 0.00 41 1010.0
20260508152016 58 203 6.0 15.0 0.00 0.00 0.00 42 1010.0
20260508151016 58 248 10.0 14.0 0.00 0.00 0.00 42 1010.1
20260508150056 58 203 4.0 11.0 0.00 0.00 0.00 47 1010.3
20260508145016 57 203 5.0 12.0 0.00 0.00 0.00 47 1010.3
20260508144056 56 225 9.0 13.0 0.00 0.00 0.00 51 1010.3
20260508143016 55 225 6.0 12.0 0.00 0.00 0.00 51 1010.5
20260508142016 54 225 7.0 13.0 0.00 0.00 0.00 51 1010.5
20260508141016 54 225 6.0 13.0 0.00 0.00 0.00 54 1010.6
20260508140016 53 225 5.0 13.0 0.00 0.00 0.00 55 1010.7
20260508135016 52 203 4.0 10.0 0.00 0.00 0.00 58 1010.7
20260508134016 52 203 3.0 11.0 0.00 0.00 0.00 57 1010.7
20260508133016 50 203 4.0 10.0 0.00 0.00 0.00 62 1010.6
20260508132016 49 225 4.0 11.0 0.00 0.00 0.00 64 1010.8
20260508131016 48 225 5.0 10.0 0.00 0.00 0.00 66 1010.9
20260508130057 47 225 6.0 10.0 0.00 0.00 0.00 68 1010.8
20260508125017 46 203 2.0 6.0 0.00 0.00 0.00 71 1011.0
20260508124016 45 225 4.0 9.0 0.00 0.00 0.00 71 1010.9
20260508123016 45 203 2.0 5.0 0.00 0.00 0.00 74 1010.9
20260508122016 44 203 2.0 7.0 0.00 0.00 0.00 75 1010.8
20260508121016 43 225 2.0 5.0 0.00 0.00 0.00 76 1010.8
20260508120016 42 225 2.0 5.0 0.00 0.00 0.00 76 1010.7
20260508115016 41 203 1.0 5.0 0.00 0.00 0.00 77 1010.6
20260508114016 40 203 1.0 4.0 0.00 0.00 0.00 80 1010.5
20260508113016 38 203 3.0 5.0 0.00 0.00 0.00 81 1010.4
20260508112037 37 203 2.0 4.0 0.00 0.00 0.00 82 1010.3
20260508111016 36 203 1.0 3.0 0.00 0.00 0.00 83 1010.2
20260508110016 36 203 1.0 2.0 0.00 0.00 0.00 84 1010.2
20260508105016 35 0.0 1.0 0.00 0.00 0.00 84 1010.2
20260508104015 35 0.0 2.0 0.00 0.00 0.00 84 1010.0
20260508103016 35 203 2.0 4.0 0.00 0.00 0.00 83 1010.3
20260508102016 36 203 1.0 3.0 0.00 0.00 0.00 83 1010.3
20260508101016 36 203 1.0 3.0 0.00 0.00 0.00 82 1010.4
20260508100016 36 203 1.0 3.0 0.00 0.00 0.00 83 1010.3
20260508095015 36 0.0 2.0 0.00 0.00 0.00 83 1010.4
20260508094037 36 203 2.0 4.0 0.00 0.00 0.00 83 1010.6
20260508093115 35 203 1.0 3.0 0.00 0.00 0.00 84 1010.4
20260508092536 35 203 2.0 4.0 0.00 0.00 0.00 84 1010.3
20260508091515 35 0.0 1.0 0.00 0.00 0.00 83 1010.4
20260508090515 35 225 2.0 3.0 0.00 0.00 0.00 83 1010.5
20260508085516 37 0.0 1.0 0.00 0.00 0.00 82 1010.5
20260508084536 37 0.0 1.0 0.00 0.00 0.00 82 1010.5
20260508083518 37 0.0 1.0 0.00 0.00 0.00 83 1010.6
20260508082517 36 0.0 1.0 0.00 0.00 0.00 86 1010.7
20260508081518 35 0.0 1.0 0.00 0.00 0.00 84 1010.7
20260508080517 37 225 1.0 2.0 0.00 0.00 0.00 84 1011.0
20260508075537 38 0.0 1.0 0.00 0.00 0.00 84 1011.1
20260508074517 38 0.0 1.0 0.00 0.00 0.00 84 1011.0
20260508073517 38 0.0 3.0 0.00 0.00 0.00 84 1011.2
20260508072517 38 0.0 2.0 0.00 0.00 0.00 86 1011.3
20260508071517 37 0.0 2.0 0.00 0.00 0.00 89 1011.2
20260508070517 36 0.0 2.0 0.00 0.00 0.00 89 1011.4
20260508065515 36 0.0 1.0 0.00 0.00 0.00 87 1011.4
20260508064538 37 0.0 0.0 0.00 0.00 0.00 86 1011.5
20260508063518 37 0.0 2.0 0.00 0.00 0.00 85 1011.6
20260508062517 38 0.0 2.0 0.00 0.00 0.00 85 1011.6
20260508061517 38 0.0 1.0 0.00 0.00 0.00 83 1011.7
20260508060517 39 0.0 2.0 0.00 0.00 0.00 82 1011.8
20260508055517 40 248 1.0 2.0 0.00 0.00 0.00 81 1011.9
20260508054517 40 248 1.0 3.0 0.00 0.00 0.00 81 1011.8
20260508053517 40 248 2.0 4.0 0.00 0.00 0.00 81 1011.8
20260508052517 39 248 1.0 3.0 0.00 0.00 0.00 82 1011.9
20260508051517 39 270 1.0 3.0 0.00 0.00 0.00 82 1012.0
20260508050517 38 293 2.0 4.0 0.00 0.00 0.00 80 1012.0
20260508045518 37 270 1.0 3.0 0.00 0.00 0.00 81 1012.0
20260508044518 37 293 1.0 2.0 0.00 0.00 0.00 78 1012.0
20260508043519 37 293 1.0 3.0 0.00 0.00 0.00 77 1012.1
20260508042517 38 68 1.0 4.0 0.00 0.00 0.00 73 1012.2
20260508041517 37 0.0 2.0 0.00 0.00 0.00 70 1012.2
20260508040517 38 0.0 1.0 0.00 0.00 0.00 70 1012.1
20260508035517 37 0.0 1.0 0.00 0.00 0.00 71 1012.1
20260508034618 38 0.0 1.0 0.00 0.00 0.00 70 1011.9
20260508033517 38 0.0 1.0 0.00 0.00 0.00 71 1012.1
20260508032517 38 0.0 0.0 0.00 0.00 0.00 71 1012.1
20260508031517 38 0.0 1.0 0.00 0.00 0.00 69 1012.0
20260508030558 39 0.0 0.0 0.00 0.00 0.00 69 1012.1
20260508025518 39 0.0 0.0 0.00 0.00 0.00 65 1012.2
20260508024517 40 0.0 0.0 0.00 0.00 0.00 62 1012.2
20260508023517 40 0.0 1.0 0.00 0.00 0.00 65 1012.2
20260508022517 41 0.0 0.0 0.00 0.00 0.00 63 1012.2
20260508021518 40 0.0 0.0 0.00 0.00 0.00 61 1012.0
20260508020517 41 0.0 0.0 0.00 0.00 0.00 58 1012.0
20260508015517 43 0.0 0.0 0.00 0.00 0.00 56 1011.9
20260508014517 44 0.0 0.0 0.00 0.00 0.00 54 1011.8
20260508013518 44 0.0 0.0 0.00 0.00 0.00 54 1011.6
20260508012538 45 0.0 1.0 0.00 0.00 0.00 54 1011.5
20260508011537 46 0.0 1.0 0.00 0.00 0.00 50 1011.4
20260508010517 47 0.0 1.0 0.00 0.00 0.00 48 1011.5
20260508005517 48 315 2.0 3.0 0.00 0.00 0.00 48 1011.6
20260508004537 49 315 3.0 6.0 0.00 0.00 0.00 47 1011.5
20260508003537 49 315 5.0 8.0 0.00 0.00 0.00 48 1011.5
20260508002517 50 293 5.0 8.0 0.00 0.00 0.00 46 1011.3
20260508001519 51 270 6.0 8.0 0.00 0.00 0.00 43 1011.2
20260508000520 51 293 7.0 12.0 0.00 0.00 0.00 43 1011.2
20260507235517 50 270 3.0 5.0 0.00 0.00 0.00 48 1011.3
20260507234517 50 270 2.0 4.0 0.00 0.00 0.00 45 1011.2
20260507233518 50 293 2.0 4.0 0.00 0.00 0.00 47 1011.2
20260507232517 50 270 5.0 6.0 0.00 0.00 0.00 47 1011.0
20260507231537 51 248 6.0 8.0 0.00 0.00 0.00 44 1010.9
20260507230519 51 270 8.0 11.0 0.00 0.00 0.00 42 1011.0
20260507225518 52 270 4.0 7.0 0.00 0.00 0.00 44 1011.1
20260507224517 51 270 6.0 11.0 0.00 0.00 0.00 42 1011.2
20260507223517 51 293 7.0 13.0 0.00 0.00 0.00 46 1011.1
20260507222517 52 248 6.0 8.0 0.00 0.00 0.00 42 1011.1
20260507221517 52 270 6.0 11.0 0.00 0.00 0.00 45 1011.1
20260507220517 51 270 10.0 13.0 0.00 0.00 0.00 41 1011.2
20260507215537 51 270 4.0 8.0 0.00 0.00 0.00 44 1011.2
20260507214523 51 270 6.0 9.0 0.00 0.00 0.00 44 1011.2
20260507213523 51 293 6.0 12.0 0.00 0.00 0.00 44 1011.2
20260507212516 52 270 8.0 11.0 0.00 0.00 0.00 44 1011.1
20260507211517 52 248 2.0 4.0 0.00 0.00 0.00 44 1011.1
20260507210536 51 270 7.0 10.0 0.00 0.00 0.00 43 1011.2
20260507205517 51 270 6.0 12.0 0.00 0.00 0.00 44 1011.3
20260507204518 51 270 4.0 8.0 0.00 0.00 0.00 46 1011.4
20260507203518 51 293 6.0 12.0 0.00 0.00 0.00 44 1011.4
20260507202518 50 270 4.0 8.0 0.00 0.00 0.00 43 1011.5
20260507201537 51 270 7.0 13.0 0.00 0.00 0.00 47 1011.5
20260507200537 50 270 9.0 13.0 0.00 0.00 0.00 44 1011.7
20260507195516 51 248 9.0 14.0 0.00 0.00 0.00 44 1011.8
20260507194516 51 270 4.0 7.0 0.00 0.00 0.00 40 1011.9
20260507193516 51 293 6.0 9.0 0.00 0.00 0.00 46 1012.1
20260507192516 52 225 6.0 15.0 0.00 0.00 0.00 46 1011.9